RADUGA-1 5 [-]

Last updated on Nov. 17, 2019, 4:20 a.m. UTC

1 26477U 00049A   19320.05348953 -.00000024  00000-0  00000+0 0  9997
2 26477  12.5313  25.7052 0004158 343.9305 133.0677  1.00205921 70373
UTC
Height (km)
Latitude
Longitude
Inclination
Orbital Period
UTC large
Height (km)
Speed (km/s)
/
Latitude / Longitude
Inclination (degrees)
Orbital Period (minutes)
Azimuth
Elevation
Range (km)
Doppler Factor
iOS Compass Heading
iOS Angle

Next 30 passes for location: Hong Kong

Rise time Rise Azimuth (degrees) Set time Set Azimuth (degrees) Duration Max altitude (degrees)

No matching passes for this satellites